QPF
0.02 0.02 0.02 0.02 0.01 0.02 0.01 0.00 0.00 0.00 0.00 0.00 0.00 0.00 0.00 0.00 0.00 0.00 0.00 0.00 0.00 0.01 0.01 0.00 0.00 0.00 0.00 0.00 0.01 0.01 0.00 0.00 0.00 0.00 0.00 0.00 0.00 0.01 0.01 0.00 0.00 0.01 0.01
0.02 0.02 0.02 0.01 0.01 0.01 0.01 0.01 0.00 0.00 0.00 0.00 0.00 0.00 0.00 0.00 0.00 0.00 0.00 0.00 0.00 0.01 0.01 0.01 0.00 0.01 0.01 0.01 0.01 0.00 0.00 0.00 0.00 0.00 0.00 0.00 0.00 0.01 0.01 0.01 0.00 0.01 0.03
0.02 0.02 0.02 0.01 0.01 0.00 0.00 0.01 0.00 0.00 0.00 0.00 0.00 0.00 0.00 0.00 0.00 0.00 0.00 0.00 0.00 0.02 0.02 0.01 0.00 0.00 0.00 0.01 0.01 0.00 0.00 0.00 0.00 0.01 0.01 0.01 0.00 0.00 0.02 0.01 0.01 0.01 0.04
0.02 0.02 0.01 0.01 0.01 0.00 0.00 0.01 0.01 0.01 0.00 0.00 0.00 0.00 0.00 0.00 0.00 0.00 0.00 0.00 0.00 0.01 0.01 0.01 0.00 0.00 0.01 0.01 0.01 0.01 0.01 0.00 0.00 0.02 0.03 0.02 0.01 0.00 0.01 0.02 0.01 0.01 0.03
0.01 0.01 0.01 0.02 0.01 0.01 0.00 0.00 0.01 0.01 0.01 0.00 0.00 0.00 0.00 0.00 0.00 0.00 0.00 0.00 0.00 0.00 0.00 0.01 0.01 0.01 0.01 0.02 0.01 0.02 0.01 0.01 0.01 0.01 0.01 0.01 0.01 0.01 0.01 0.02 0.01 0.01 0.01
0.02 0.02 0.02 0.02 0.02 0.01 0.01 0.00 0.00 0.01 0.01 0.00 0.00 0.00 0.00 0.00 0.00 0.00 0.00 0.01 0.00 0.01 0.01 0.00 0.00 0.01 0.01 0.02 0.01 0.01 0.01 0.01 0.01 0.01 0.01 0.01 0.01 0.01 0.01 0.01 0.02 0.01 0.00
0.03 0.03 0.03 0.03 0.03 0.02 0.02 0.01 0.01 0.00 0.00 0.00 0.00 0.00 0.00 0.00 0.00 0.00 0.01 0.01 0.01 0.01 0.00 0.00 0.00 0.00 0.01 0.01 0.01 0.00 0.00 0.01 0.01 0.01 0.01 0.00 0.00 0.00 0.00 0.01 0.01 0.01 0.00
0.03 0.03 0.03 0.03 0.02 0.02 0.02 0.01 0.01 0.01 0.00 0.00 0.00 0.01 0.00 0.00 0.00 0.00 0.01 0.01 0.01 0.00 0.00 0.01 0.01 0.00 0.00 0.00 0.00 0.00 0.00 0.00 0.00 0.00 0.00 0.00 0.00 0.00 0.01 0.01 0.00 0.00 0.00
0.03 0.02 0.02 0.02 0.01 0.01 0.01 0.00 0.00 0.01 0.00 0.00 0.00 0.01 0.01 0.00 0.00 0.00 0.00 0.01 0.00 0.00 0.00 0.01 0.01 0.00 0.00 0.00 0.00 0.00 0.00 0.00 0.00 0.00 0.00 0.00 0.01 0.01 0.01 0.01 0.00 0.00 0.00
0.01 0.01 0.01 0.01 0.01 0.01 0.00 0.00 0.00 0.00 0.00 0.00 0.00 0.00 0.00 0.00 0.00 0.00 0.00 0.01 0.01 0.00 0.00 0.00 0.01 0.01 0.00 0.00 0.00 0.00 0.00 0.00 0.00 0.00 0.00 0.00 0.01 0.01 0.01 0.01 0.01 0.01 0.00
0.01 0.02 0.02 0.01 0.01 0.01 0.00 0.00 0.01 0.01 0.00 0.00 0.00 0.00 0.00 0.00 0.00 0.00 0.00 0.00 0.01 0.00 0.00 0.00 0.00 0.00 0.00 0.00 0.00 0.00 0.00 0.00 0.00 0.00 0.00 0.00 0.00 0.00 0.00 0.01 0.01 0.00 0.01
0.02 0.02 0.01 0.01 0.01 0.01 0.01 0.01 0.01 0.01 0.01 0.01 0.01 0.00 0.00 0.00 0.00 0.01 0.01 0.01 0.01 0.00 0.00 0.00 0.00 0.00 0.00 0.00 0.00 0.00 0.00 0.00 0.00 0.00 0.00 0.00 0.00 0.00 0.00 0.00 0.00 0.00 0.01
0.02 0.02 0.01 0.01 0.01 0.01 0.01 0.01 0.01 0.01 0.01 0.01 0.01 0.01 0.00 0.00 0.00 0.01 0.01 0.01 0.01 0.01 0.00 0.00 0.00 0.00 0.00 0.00 0.00 0.00 0.00 0.00 0.00 0.00 0.00 0.00 0.00 0.00 0.00 0.00 0.00 0.00 0.00
0.02 0.01 0.01 0.01 0.01 0.01 0.01 0.01 0.01 0.01 0.01 0.01 0.01 0.01 0.01 0.00 0.01 0.01 0.01 0.01 0.01 0.01 0.01 0.01 0.01 0.01 0.00 0.00 0.00 0.00 0.00 0.00 0.00 0.00 0.00 0.00 0.00 0.00 0.00 0.00 0.00 0.00 0.00
0.01 0.02 0.02 0.02 0.02 0.02 0.02 0.02 0.02 0.02 0.02 0.02 0.02 0.02 0.02 0.01 0.02 0.01 0.01 0.00 0.01 0.01 0.01 0.01 0.01 0.01 0.01 0.00 0.00 0.00 0.00 0.00 0.00 0.00 0.00 0.00 0.00 0.00 0.00 0.00 0.00 0.00 0.00
0.01 0.01 0.02 0.02 0.02 0.02 0.02 0.02 0.02 0.03 0.03 0.03 0.03 0.03 0.02 0.02 0.02 0.01 0.01 0.01 0.01 0.01 0.01 0.01 0.01 0.01 0.01 0.01 0.01 0.00 0.00 0.00 0.00 0.00 0.00 0.00 0.00 0.00 0.00 0.00 0.00 0.00 0.00
0.02 0.01 0.01 0.01 0.02 0.02 0.02 0.01 0.01 0.02 0.02 0.02 0.02 0.02 0.02 0.02 0.01 0.01 0.01 0.01 0.01 0.01 0.01 0.01 0.01 0.01 0.01 0.01 0.01 0.01 0.01 0.00 0.00 0.00 0.00 0.00 0.00 0.00 0.00 0.00 0.00 0.00 0.00
0.03 0.02 0.02 0.02 0.02 0.03 0.03 0.02 0.02 0.01 0.02 0.03 0.03 0.02 0.01 0.01 0.01 0.01 0.01 0.01 0.00 0.00 0.00 0.01 0.01 0.01 0.00 0.00 0.01 0.01 0.01 0.00 0.00 0.00 0.00 0.00 0.00 0.00 0.00 0.00 0.00 0.00 0.00
0.03 0.03 0.02 0.02 0.02 0.02 0.02 0.03 0.02 0.02 0.03 0.04 0.03 0.03 0.02 0.01 0.01 0.01 0.01 0.01 0.01 0.00 0.00 0.01 0.01 0.01 0.01 0.01 0.01 0.01 0.01 0.01 0.00 0.00 0.00 0.00 0.00 0.00 0.00 0.00 0.00 0.00 0.00
0.03 0.03 0.02 0.02 0.03 0.04 0.03 0.03 0.04 0.04 0.04 0.04 0.03 0.03 0.03 0.02 0.01 0.01 0.01 0.01 0.01 0.01 0.01 0.01 0.01 0.01 0.01 0.01 0.01 0.01 0.01 0.00 0.00 0.00 0.00 0.00 0.00 0.00 0.00 0.00 0.00 0.00 0.00
0.02 0.03 0.03 0.03 0.03 0.04 0.04 0.04 0.04 0.04 0.04 0.04 0.05 0.05 0.04 0.03 0.02 0.02 0.02 0.01 0.01 0.02 0.02 0.02 0.01 0.02 0.02 0.02 0.02 0.02 0.01 0.01 0.01 0.00 0.00 0.00 0.00 0.00 0.01 0.01 0.01 0.01 0.01
0.06 0.04 0.03 0.03 0.04 0.04 0.04 0.04 0.03 0.03 0.03 0.04 0.04 0.04 0.04 0.03 0.03 0.03 0.03 0.03 0.03 0.03 0.03 0.03 0.04 0.03 0.03 0.03 0.03 0.02 0.02 0.01 0.01 0.01 0.02 0.02 0.02 0.02 0.02 0.02 0.02 0.02 0.01
0.04 0.05 0.04 0.03 0.03 0.03 0.04 0.03 0.03 0.03 0.02 0.03 0.03 0.02 0.02 0.03 0.03 0.03 0.04 0.03 0.03 0.03 0.03 0.03 0.04 0.04 0.04 0.03 0.02 0.02 0.02 0.02 0.03 0.04 0.04 0.04 0.04 0.04 0.04 0.04 0.03 0.02 0.02
0.02 0.03 0.04 0.04 0.03 0.02 0.02 0.02 0.02 0.02 0.02 0.02 0.02 0.02 0.03 0.03 0.02 0.02 0.03 0.03 0.03 0.03 0.04 0.04 0.03 0.03 0.04 0.03 0.03 0.03 0.03 0.03 0.03 0.03 0.04 0.04 0.04 0.04 0.03 0.02 0.02 0.01 0.01
0.02 0.01 0.02 0.03 0.03 0.02 0.02 0.01 0.01 0.02 0.02 0.01 0.02 0.02 0.02 0.02 0.01 0.01 0.02 0.03 0.03 0.03 0.04 0.04 0.03 0.03 0.03 0.03 0.02 0.02 0.03 0.03 0.03 0.02 0.02 0.02 0.02 0.01 0.01 0.01 0.01 0.01 0.01
0.02 0.01 0.01 0.01 0.01 0.01 0.01 0.01 0.01 0.01 0.02 0.01 0.01 0.01 0.02 0.02 0.02 0.02 0.03 0.03 0.04 0.04 0.04 0.03 0.03 0.03 0.02 0.02 0.01 0.01 0.02 0.02 0.02 0.01 0.01 0.01 0.01 0.01 0.01 0.01 0.01 0.02 0.02
MSLP
1019.78 1019.80 1019.83 1019.87 1019.89 1019.90 1019.87 1019.83 1019.78 1019.75 1019.74 1019.77 1019.85 1019.97 1020.11 1020.26 1020.39 1020.50 1020.56 1020.59 1020.58 1020.56 1020.53 1020.51 1020.52 1020.57 1020.67 1020.79 1020.95 1021.11 1021.26 1021.39 1021.48 1021.52 1021.51 1021.44 1021.34 1021.20 1021.06 1020.92 1020.79 1020.68 1020.58
1019.97 1019.99 1020.03 1020.07 1020.10 1020.12 1020.12 1020.10 1020.08 1020.06 1020.08 1020.13 1020.22 1020.35 1020.51 1020.67 1020.82 1020.95 1021.03 1021.07 1021.07 1021.04 1020.99 1020.93 1020.90 1020.89 1020.92 1021.00 1021.12 1021.26 1021.42 1021.57 1021.69 1021.78 1021.81 1021.79 1021.72 1021.61 1021.48 1021.36 1021.24 1021.16 1021.09
1020.21 1020.26 1020.32 1020.37 1020.42 1020.44 1020.45 1020.44 1020.44 1020.43 1020.46 1020.51 1020.61 1020.74 1020.89 1021.06 1021.22 1021.36 1021.46 1021.52 1021.54 1021.52 1021.46 1021.39 1021.33 1021.29 1021.28 1021.32 1021.40 1021.53 1021.68 1021.84 1021.99 1022.11 1022.17 1022.19 1022.15 1022.07 1021.96 1021.85 1021.76 1021.69 1021.65
1020.46 1020.56 1020.65 1020.73 1020.79 1020.83 1020.85 1020.85 1020.84 1020.84 1020.86 1020.91 1020.99 1021.11 1021.25 1021.41 1021.57 1021.71 1021.83 1021.91 1021.95 1021.94 1021.90 1021.83 1021.76 1021.70 1021.67 1021.68 1021.75 1021.85 1022.00 1022.16 1022.32 1022.46 1022.55 1022.59 1022.58 1022.52 1022.43 1022.34 1022.26 1022.21 1022.21
1020.67 1020.82 1020.96 1021.07 1021.16 1021.21 1021.24 1021.26 1021.26 1021.26 1021.28 1021.31 1021.37 1021.46 1021.58 1021.71 1021.85 1021.99 1022.11 1022.20 1022.25 1022.27 1022.24 1022.20 1022.13 1022.07 1022.04 1022.03 1022.08 1022.17 1022.30 1022.46 1022.63 1022.77 1022.88 1022.94 1022.95 1022.91 1022.84 1022.76 1022.70 1022.68 1022.70
1020.76 1020.97 1021.16 1021.31 1021.43 1021.52 1021.58 1021.61 1021.63 1021.64 1021.66 1021.68 1021.72 1021.78 1021.86 1021.96 1022.06 1022.17 1022.28 1022.36 1022.43 1022.46 1022.46 1022.43 1022.39 1022.34 1022.31 1022.31 1022.34 1022.43 1022.55 1022.70 1022.86 1023.01 1023.13 1023.20 1023.22 1023.20 1023.15 1023.09 1023.04 1023.04 1023.10
1020.69 1020.95 1021.18 1021.38 1021.55 1021.68 1021.78 1021.86 1021.91 1021.95 1021.98 1022.00 1022.02 1022.05 1022.08 1022.13 1022.19 1022.26 1022.33 1022.40 1022.46 1022.50 1022.52 1022.52 1022.50 1022.48 1022.46 1022.47 1022.51 1022.59 1022.71 1022.85 1023.01 1023.16 1023.29 1023.38 1023.41 1023.41 1023.37 1023.33 1023.31 1023.33 1023.42
1020.42 1020.72 1020.99 1021.24 1021.46 1021.65 1021.81 1021.95 1022.06 1022.14 1022.19 1022.23 1022.24 1022.24 1022.23 1022.23 1022.23 1022.25 1022.28 1022.32 1022.37 1022.41 1022.45 1022.47 1022.48 1022.48 1022.49 1022.52 1022.57 1022.66 1022.78 1022.93 1023.09 1023.25 1023.40 1023.50 1023.56 1023.58 1023.57 1023.55 1023.55 1023.59 1023.69
1019.97 1020.28 1020.59 1020.89 1021.16 1021.42 1021.66 1021.86 1022.04 1022.18 1022.28 1022.33 1022.34 1022.32 1022.28 1022.23 1022.18 1022.15 1022.14 1022.15 1022.18 1022.23 1022.27 1022.32 1022.36 1022.40 1022.44 1022.49 1022.56 1022.67 1022.80 1022.97 1023.15 1023.33 1023.49 1023.62 1023.71 1023.76 1023.78 1023.79 1023.81 1023.87 1023.99
1019.38 1019.70 1020.03 1020.36 1020.69 1021.01 1021.32 1021.61 1021.86 1022.06 1022.21 1022.29 1022.32 1022.29 1022.22 1022.13 1022.04 1021.97 1021.92 1021.91 1021.93 1021.98 1022.04 1022.12 1022.19 1022.26 1022.34 1022.42 1022.53 1022.66 1022.81 1023.00 1023.20 1023.41 1023.61 1023.79 1023.92 1024.01 1024.07 1024.12 1024.16 1024.24 1024.37
1018.73 1019.03 1019.36 1019.72 1020.08 1020.47 1020.84 1021.20 1021.52 1021.78 1021.98 1022.10 1022.14 1022.12 1022.04 1021.93 1021.82 1021.72 1021.65 1021.63 1021.66 1021.72 1021.80 1021.90 1022.01 1022.12 1022.23 1022.35 1022.48 1022.64 1022.83 1023.04 1023.28 1023.53 1023.78 1024.00 1024.19 1024.34 1024.45 1024.53 1024.61 1024.71 1024.85
1018.10 1018.36 1018.68 1019.03 1019.43 1019.84 1020.26 1020.67 1021.04 1021.35 1021.59 1021.74 1021.80 1021.79 1021.71 1021.61 1021.49 1021.40 1021.34 1021.33 1021.37 1021.45 1021.57 1021.70 1021.84 1021.98 1022.12 1022.27 1022.43 1022.62 1022.84 1023.08 1023.36 1023.66 1023.96 1024.25 1024.50 1024.71 1024.89 1025.02 1025.14 1025.27 1025.42
1017.56 1017.77 1018.05 1018.38 1018.77 1019.19 1019.63 1020.06 1020.45 1020.79 1021.05 1021.22 1021.30 1021.30 1021.25 1021.16 1021.07 1021.00 1020.97 1021.00 1021.07 1021.19 1021.33 1021.50 1021.67 1021.84 1022.00 1022.17 1022.35 1022.56 1022.80 1023.08 1023.40 1023.75 1024.11 1024.47 1024.79 1025.08 1025.32 1025.52 1025.70 1025.86 1026.04
1017.17 1017.31 1017.53 1017.81 1018.16 1018.55 1018.97 1019.39 1019.78 1020.11 1020.37 1020.55 1020.64 1020.67 1020.64 1020.59 1020.55 1020.52 1020.54 1020.61 1020.73 1020.89 1021.08 1021.27 1021.46 1021.64 1021.82 1021.99 1022.19 1022.41 1022.67 1022.99 1023.35 1023.75 1024.17 1024.60 1025.00 1025.37 1025.69 1025.97 1026.20 1026.42 1026.63
1016.95 1017.01 1017.14 1017.35 1017.63 1017.96 1018.33 1018.69 1019.04 1019.34 1019.58 1019.75 1019.85 1019.90 1019.91 1019.91 1019.92 1019.96 1020.04 1020.17 1020.34 1020.54 1020.75 1020.96 1021.16 1021.35 1021.53 1021.70 1021.90 1022.13 1022.41 1022.76 1023.16 1023.61 1024.10 1024.60 1025.08 1025.53 1025.94 1026.30 1026.61 1026.89 1027.16
1016.90 1016.86 1016.89 1017.01 1017.19 1017.44 1017.71 1018.00 1018.28 1018.52 1018.72 1018.87 1018.97 1019.03 1019.08 1019.13 1019.20 1019.30 1019.45 1019.64 1019.85 1020.08 1020.32 1020.54 1020.74 1020.92 1021.09 1021.27 1021.46 1021.70 1022.00 1022.37 1022.82 1023.32 1023.88 1024.45 1025.02 1025.56 1026.06 1026.50 1026.90 1027.25 1027.57
1016.99 1016.84 1016.77 1016.78 1016.85 1016.99 1017.16 1017.35 1017.53 1017.70 1017.84 1017.96 1018.05 1018.12 1018.20 1018.30 1018.42 1018.59 1018.79 1019.02 1019.27 1019.52 1019.77 1019.99 1020.18 1020.36 1020.51 1020.68 1020.88 1021.13 1021.46 1021.87 1022.36 1022.93 1023.55 1024.20 1024.85 1025.48 1026.06 1026.59 1027.07 1027.50 1027.89
1017.19 1016.94 1016.76 1016.66 1016.62 1016.63 1016.68 1016.76 1016.85 1016.93 1017.01 1017.08 1017.15 1017.23 1017.33 1017.46 1017.63 1017.84 1018.08 1018.34 1018.61 1018.87 1019.11 1019.32 1019.50 1019.66 1019.82 1019.99 1020.20 1020.48 1020.84 1021.30 1021.85 1022.48 1023.17 1023.90 1024.63 1025.33 1026.00 1026.61 1027.17 1027.67 1028.12
1017.46 1017.12 1016.85 1016.64 1016.48 1016.38 1016.32 1016.28 1016.26 1016.26 1016.26 1016.28 1016.33 1016.40 1016.51 1016.67 1016.86 1017.10 1017.36 1017.64 1017.91 1018.16 1018.39 1018.58 1018.75 1018.90 1019.05 1019.23 1019.47 1019.79 1020.21 1020.72 1021.34 1022.04 1022.80 1023.60 1024.41 1025.19 1025.92 1026.61 1027.23 1027.79 1028.31
1017.80 1017.39 1017.03 1016.72 1016.47 1016.25 1016.08 1015.93 1015.81 1015.72 1015.66 1015.63 1015.64 1015.70 1015.80 1015.97 1016.17 1016.42 1016.68 1016.95 1017.21 1017.45 1017.65 1017.83 1017.98 1018.12 1018.29 1018.49 1018.77 1019.14 1019.62 1020.20 1020.89 1021.66 1022.49 1023.36 1024.23 1025.07 1025.86 1026.60 1027.28 1027.89 1028.45
1018.17 1017.71 1017.28 1016.90 1016.55 1016.24 1015.97 1015.72 1015.51 1015.34 1015.20 1015.12 1015.10 1015.13 1015.23 1015.39 1015.59 1015.82 1016.08 1016.33 1016.57 1016.78 1016.96 1017.12 1017.26 1017.40 1017.58 1017.82 1018.15 1018.57 1019.11 1019.76 1020.52 1021.36 1022.26 1023.18 1024.10 1024.98 1025.82 1026.60 1027.31 1027.96 1028.56
1018.56 1018.07 1017.59 1017.15 1016.73 1016.34 1015.97 1015.64 1015.35 1015.10 1014.90 1014.77 1014.71 1014.71 1014.79 1014.93 1015.12 1015.34 1015.57 1015.80 1016.01 1016.20 1016.36 1016.50 1016.63 1016.79 1016.99 1017.26 1017.63 1018.11 1018.71 1019.42 1020.23 1021.13 1022.07 1023.03 1023.99 1024.91 1025.78 1026.58 1027.32 1027.99 1028.61
1018.96 1018.44 1017.93 1017.44 1016.96 1016.51 1016.07 1015.66 1015.30 1014.98 1014.72 1014.54 1014.44 1014.42 1014.47 1014.59 1014.76 1014.96 1015.17 1015.38 1015.57 1015.73 1015.87 1016.00 1016.13 1016.29 1016.51 1016.81 1017.22 1017.74 1018.38 1019.14 1020.00 1020.92 1021.90 1022.89 1023.86 1024.80 1025.68 1026.50 1027.26 1027.95 1028.59
1019.32 1018.79 1018.27 1017.74 1017.22 1016.71 1016.21 1015.74 1015.31 1014.93 1014.63 1014.40 1014.26 1014.20 1014.23 1014.33 1014.48 1014.66 1014.86 1015.04 1015.22 1015.37 1015.49 1015.62 1015.75 1015.92 1016.15 1016.48 1016.91 1017.45 1018.12 1018.90 1019.77 1020.72 1021.70 1022.70 1023.68 1024.63 1025.52 1026.35 1027.12 1027.82 1028.48
1019.62 1019.09 1018.55 1018.00 1017.45 1016.90 1016.35 1015.83 1015.34 1014.92 1014.56 1014.29 1014.12 1014.03 1014.04 1014.12 1014.25 1014.42 1014.60 1014.78 1014.94 1015.09 1015.21 1015.34 1015.47 1015.65 1015.89 1016.22 1016.66 1017.21 1017.89 1018.67 1019.54 1020.48 1021.46 1022.45 1023.44 1024.38 1025.28 1026.12 1026.90 1027.62 1028.29
1019.83 1019.31 1018.76 1018.20 1017.63 1017.05 1016.47 1015.90 1015.38 1014.91 1014.51 1014.20 1013.99 1013.88 1013.86 1013.92 1014.04 1014.20 1014.38 1014.56 1014.72 1014.87 1015.00 1015.13 1015.27 1015.45 1015.70 1016.03 1016.47 1017.01 1017.68 1018.44 1019.30 1020.22 1021.18 1022.17 1023.14 1024.08 1024.98 1025.83 1026.63 1027.36 1028.05
Thickness
5690 5689 5689 5688 5688 5687 5686 5686 5686 5686 5686 5686 5685 5685 5684 5683 5682 5682 5680 5680 5679 5678 5677 5676 5674 5673 5672 5671 5670 5668 5666 5664 5659 5655 5654 5654 5653 5653 5653 5653 5653 5652 5652
5689 5688 5687 5686 5686 5685 5684 5684 5684 5684 5684 5684 5684 5683 5682 5681 5680 5679 5678 5677 5676 5675 5674 5673 5671 5671 5669 5668 5666 5665 5663 5661 5658 5653 5651 5650 5650 5649 5649 5649 5648 5647 5646
5688 5687 5685 5685 5684 5684 5683 5683 5683 5682 5682 5682 5682 5681 5680 5679 5678 5677 5677 5675 5674 5673 5672 5671 5670 5668 5666 5664 5663 5661 5660 5658 5655 5652 5647 5646 5645 5645 5644 5644 5643 5642 5642
5687 5685 5684 5683 5683 5683 5682 5681 5681 5681 5680 5680 5679 5679 5678 5677 5676 5675 5674 5673 5672 5671 5670 5669 5668 5667 5665 5662 5660 5658 5656 5653 5651 5648 5644 5642 5641 5640 5639 5637 5636 5636 5635
5687 5685 5684 5683 5683 5681 5680 5679 5679 5679 5678 5678 5677 5676 5676 5675 5675 5673 5672 5671 5669 5668 5667 5666 5666 5665 5663 5661 5659 5655 5653 5649 5646 5643 5640 5638 5636 5634 5633 5632 5631 5629 5628
5686 5684 5683 5682 5681 5680 5679 5677 5676 5676 5675 5675 5674 5674 5674 5674 5673 5673 5671 5669 5667 5666 5664 5663 5662 5661 5660 5658 5656 5654 5652 5648 5643 5640 5636 5634 5632 5630 5629 5628 5625 5624 5622
5685 5684 5682 5681 5680 5679 5677 5675 5674 5673 5672 5671 5671 5671 5670 5671 5671 5670 5669 5667 5664 5663 5661 5660 5659 5658 5656 5654 5652 5650 5647 5645 5643 5639 5635 5631 5629 5628 5625 5623 5620 5617 5614
5684 5683 5682 5680 5678 5677 5675 5673 5671 5670 5669 5669 5668 5668 5667 5668 5668 5667 5665 5663 5661 5659 5658 5657 5655 5653 5652 5650 5647 5644 5641 5639 5638 5635 5633 5630 5628 5625 5623 5620 5617 5613 5610
5682 5681 5681 5679 5677 5674 5672 5671 5669 5668 5667 5666 5666 5665 5664 5664 5664 5663 5662 5659 5656 5655 5654 5653 5652 5650 5648 5646 5643 5639 5636 5633 5632 5630 5628 5626 5623 5621 5618 5615 5611 5608 5604
5683 5681 5680 5678 5676 5673 5671 5669 5668 5666 5665 5664 5662 5662 5662 5661 5661 5660 5659 5656 5652 5651 5649 5648 5647 5646 5644 5641 5638 5634 5630 5628 5626 5623 5621 5619 5617 5614 5612 5609 5605 5601 5596
5683 5680 5678 5676 5674 5672 5670 5667 5665 5663 5661 5660 5658 5658 5658 5658 5658 5657 5655 5653 5650 5647 5645 5643 5642 5641 5639 5637 5634 5630 5627 5624 5620 5617 5614 5611 5609 5607 5604 5602 5599 5595 5591
5680 5678 5676 5673 5672 5670 5667 5664 5662 5660 5657 5655 5654 5653 5653 5653 5653 5653 5651 5650 5648 5644 5641 5639 5637 5636 5634 5631 5628 5625 5622 5618 5614 5610 5606 5603 5600 5598 5596 5594 5591 5588 5585
5677 5675 5673 5671 5669 5667 5664 5661 5658 5657 5655 5652 5651 5649 5648 5648 5649 5649 5647 5645 5643 5640 5638 5636 5633 5630 5628 5625 5622 5619 5615 5611 5607 5603 5599 5596 5593 5591 5589 5586 5583 5580 5576
5675 5672 5670 5668 5665 5663 5661 5659 5657 5655 5653 5651 5649 5647 5645 5644 5644 5643 5642 5640 5638 5635 5632 5630 5627 5623 5620 5618 5614 5611 5607 5605 5602 5598 5594 5590 5587 5584 5581 5577 5574 5570 5566
5672 5670 5667 5665 5663 5660 5658 5657 5656 5655 5655 5652 5650 5648 5644 5642 5643 5642 5639 5636 5634 5631 5627 5622 5618 5615 5611 5609 5606 5603 5600 5597 5594 5591 5587 5583 5580 5576 5572 5569 5565 5561 5556
5669 5666 5664 5661 5659 5657 5654 5651 5651 5652 5651 5651 5650 5647 5645 5644 5641 5638 5636 5634 5630 5627 5622 5617 5613 5609 5606 5603 5600 5596 5593 5590 5588 5584 5580 5577 5573 5569 5565 5561 5557 5552 5548
5667 5664 5661 5659 5657 5654 5652 5650 5646 5645 5646 5645 5644 5643 5641 5639 5636 5633 5631 5628 5624 5621 5616 5613 5609 5605 5602 5599 5595 5592 5588 5585 5582 5578 5574 5570 5566 5562 5557 5553 5548 5544 5539
5664 5662 5659 5657 5654 5652 5650 5647 5645 5642 5639 5637 5637 5637 5635 5633 5631 5628 5625 5620 5615 5612 5611 5608 5605 5601 5598 5594 5590 5587 5583 5579 5575 5571 5567 5563 5558 5554 5549 5545 5540 5536 5532
5660 5658 5656 5653 5651 5648 5645 5643 5640 5638 5635 5632 5630 5628 5628 5625 5623 5620 5618 5615 5611 5608 5605 5602 5600 5597 5593 5589 5585 5581 5577 5573 5569 5564 5560 5556 5552 5547 5542 5537 5532 5528 5523
5656 5655 5652 5649 5646 5643 5640 5638 5635 5632 5630 5627 5625 5622 5620 5617 5614 5611 5609 5608 5606 5603 5600 5597 5594 5591 5588 5584 5580 5575 5570 5566 5562 5558 5554 5549 5545 5540 5535 5530 5524 5519 5514
5651 5649 5647 5644 5641 5638 5636 5633 5631 5627 5625 5622 5620 5618 5616 5613 5610 5607 5604 5602 5600 5597 5594 5592 5588 5585 5582 5578 5574 5569 5564 5560 5556 5552 5547 5542 5538 5533 5528 5522 5516 5511 5505
5646 5643 5641 5638 5636 5633 5630 5628 5625 5622 5619 5616 5613 5610 5608 5606 5604 5601 5599 5596 5594 5591 5589 5586 5582 5579 5576 5572 5568 5563 5558 5554 5549 5545 5540 5535 5531 5525 5520 5514 5508 5502 5496
5639 5637 5634 5632 5629 5627 5623 5621 5618 5615 5613 5610 5608 5605 5602 5600 5597 5595 5592 5589 5587 5584 5581 5579 5576 5572 5569 5565 5562 5558 5553 5549 5544 5539 5533 5528 5523 5517 5512 5506 5500 5493 5487
5632 5630 5628 5625 5622 5619 5617 5614 5612 5609 5607 5604 5601 5599 5596 5593 5590 5588 5585 5582 5580 5577 5574 5572 5569 5565 5561 5557 5554 5550 5546 5542 5537 5532 5527 5521 5515 5509 5503 5497 5491 5484 5478
5625 5623 5621 5618 5616 5613 5610 5607 5605 5602 5600 5598 5595 5592 5589 5586 5583 5581 5578 5575 5572 5569 5566 5564 5561 5557 5553 5550 5546 5542 5538 5533 5529 5524 5518 5513 5506 5500 5494 5488 5481 5474 5468
5618 5616 5614 5611 5608 5606 5604 5601 5598 5595 5593 5590 5588 5584 5582 5579 5576 5573 5570 5567 5564 5561 5557 5554 5551 5548 5544 5540 5536 5532 5528 5524 5519 5514 5509 5503 5497 5491 5484 5478 5471 5465 5458